Other Surface Observations
Issued by NWS

Home | Current Version | Previous Version | Text Only | Print | Product List | Glossary On
Versions: 1 2 3 4 5 6 7 8 9 10 11 12 13 14 15 16 17 18 19 20 21 22 23 24 25 26 27 28 29 30 31 32 33 34 35 36 37 38 39 40 41 42 43 44 45 46 47 48 49 50
339
SXUS52 KTAE 260618
OSOTAE
OSOTAE
North Florida/South Alabama/Southwest Georgia Weather Roundup
National Weather Service Tallahassee Florida
200 AM EDT THU APR 26 2018

Note: "fair" indicates few or no clouds below 12,000 feet with no
significant weather and/or obstructions to visibility.

!FLZ017-115-028-034-025-260700
...North Florida...

CITY           SKY/WX    TMP DP  RH WIND       PRES   REMARKS
TALLAHASSEE    FAIR      59  53  80 CALM      29.92F
APALACHICOLA   FAIR      61  61 100 CALM      29.93F
PERRY          FAIR      60  58  94 CALM      29.93S
CROSS CITY     FAIR      57 N/A N/A CALM      29.91F
JACKSONVILLE   FAIR      62  57  83 S5        29.89F
$$

!FLZ112-006-005-002-011-260700
...Florida Panhandle...

CITY           SKY/WX    TMP DP  RH WIND       PRES   REMARKS
MARIANNA       FAIR      58  55  90 CALM      29.90F
BONIFAY        FAIR      57  57 100 CALM      29.92F
PANAMA CITY NW FAIR      59  57  93 CALM      29.90F
TYNDALL AFB    FAIR      61  58  89 CALM      29.92F
TYND DRONE APT FAIR      60  59  96 CALM      29.92F
DE FUNIAK SPR  FAIR      59  54  82 CALM      29.91F
EGLIN AFB      CLEAR     62  54  73 CALM      29.89F
DESTIN         FAIR      63  56  78 E3        29.90F
HURLBURT       CLEAR     60  55  83 CALM      29.90F
CRESTVIEW      FAIR      54  52  93 CALM      29.92F
PENSACOLA      FAIR      63  55  75 CALM      29.91F
$$

!ALZ063-066-260700
...South Alabama...

CITY           SKY/WX    TMP DP  RH WIND       PRES   REMARKS
DOTHAN         FAIR      58  55  90 CALM      29.94F
OZARK CAIRNS   FAIR      57  55  95 CALM      29.91S
FT RUCKER HELI FAIR      54  53  99 CALM      29.91F
RUCKER HELI 3  FAIR      57  55  93 CALM      29.90F
RUCKER HELI 2  FAIR      54  53  98 CALM      29.90S
FLORALA APT    FAIR      55  51  86 CALM      29.93F
ANDALUSIA      FAIR      57  54  89 CALM      29.90F
TROY           FAIR      52  52 100 CALM      29.91F
EUFALA         FAIR      52  51  97 CALM      29.89F
MOBILE         FAIR      62  57  83 SE5       29.91F
$$

!GAZ120>161-260700
...Southwest and South Central Georgia...

CITY           SKY/WX    TMP DP  RH WIND       PRES   REMARKS
THOMASVILLE    FAIR     N/A N/A N/A CALM      29.92F
BAINBRIDGE       N/A     59  59 100 CALM      29.92F
MOODY AFB      FAIR      59  55  87 CALM      29.90S
VALDOSTA       FAIR      54  53  97 CALM      29.92R
MOULTRIE       FAIR      59  55  88 CALM      29.92F
BLAKELY        FAIR      55  54  94 CALM      29.91F
ALBANY         FAIR      57  54  89 CALM      29.93F
TIFTON         FAIR      58  55  88 NW5       29.91F
FITZGERALD     FAIR      59  56  89 W3        29.93F
CORDELE        FAIR      60  56  85 CALM      29.93F
AMERICUS       FAIR      54  50  87 CALM      29.92F
HOMERVILLE     FAIR      54  54 100 CALM      29.91S
$$

!GMZ750-755-770-775-260700
...Coastal and Buoy Obs...

STATION/POSITION TIME  TEMP    WIND        PRES    VSBY  WAVE
                       AIR SEA DIR/SP/G                  HT/PER
                 (UTC) (F)     (DEG/KT/KT) (MB)    (MI)  (FT/S)
KEATON BEACH     0600   65     350/  3/  4 1013.3S
CEDAR KEY        0600   69     270/  8/ 11 1013.2F
C TOWER          0600   68     330/ 10/ 11 1013.4F
APALACHICOLA BUO NOT AVBL
PANAMA CITY BUOY 0550   71 74  290/ 10/ 12 1013.7F         2/ 4
MOBILE BUOY      0600          250/ 14/ 16 1013.7
ORANGE BCH AL BU 0600   71     280/  2/  2 1013.2
$$




USA.gov is the U.S. government's official web portal to all federal, state and local government web resources and services.